SAS1689 EKCH-LIML

Flight info

Callsign SAS1689
Flight time N/A
Altitude 32000
Route NEXEN T503 MICOS DCT RAMAR/N0440F330 Z990 IRKIS DCT ZUCKA DCT BAMKI/N0439F340 DCT IBAGA DCT DKB DCT TEDGO DCT SONOM/N0437F330 DCT GERSA DCT SOSON DCT ODINA
Aircraft MD82/M-SDFGIRWY/S

Departure

Time N/A
Airport Copenhagen Kastrup Airport (EKCH)

Arrival

Time 2026-04-28 21:39
Airport Milano Linate Airport (LIML)
Time Latitude Longitude Altitude Speed Heading
2026-04-28 21:07 47.71862 8.87910 33087 ft 435 kts 206°
2026-04-28 21:07 47.66205 8.84978 33072 ft 435 kts 206°
2026-04-28 21:08 47.60523 8.82035 33095 ft 435 kts 205°
2026-04-28 21:08 47.54822 8.79099 33096 ft 433 kts 205°
2026-04-28 21:09 47.49126 8.76185 33101 ft 433 kts 205°
2026-04-28 21:09 47.43425 8.73269 33090 ft 435 kts 205°
2026-04-28 21:10 47.37742 8.70362 33100 ft 435 kts 205°
2026-04-28 21:10 47.31823 8.68345 33100 ft 451 kts 185°
2026-04-28 21:11 47.25507 8.68914 33085 ft 455 kts 183°
2026-04-28 21:11 47.19216 8.69123 33098 ft 450 kts 186°
2026-04-28 21:12 47.12949 8.68994 33085 ft 451 kts 187°
2026-04-28 21:12 47.06667 8.68776 33093 ft 451 kts 187°
2026-04-28 21:13 47.00384 8.68586 33098 ft 452 kts 187°
2026-04-28 21:13 46.94311 8.68440 33101 ft 451 kts 187°
2026-04-28 21:14 46.88033 8.68297 33103 ft 451 kts 187°
2026-04-28 21:14 46.81767 8.68147 33106 ft 446 kts 186°
2026-04-28 21:15 46.75649 8.68012 33108 ft 435 kts 186°
2026-04-28 21:15 46.69636 8.67872 33109 ft 431 kts 187°
2026-04-28 21:16 46.63628 8.67719 33089 ft 434 kts 186°
2026-04-28 21:16 46.57567 8.67564 33107 ft 437 kts 186°
2026-04-28 21:17 46.51507 8.67428 33103 ft 434 kts 186°
2026-04-28 21:17 46.45471 8.67294 33115 ft 434 kts 186°
2026-04-28 21:18 46.39408 8.67160 33080 ft 437 kts 186°
2026-04-28 21:18 46.36335 8.67086 32599 ft 446 kts 186°
2026-04-28 21:18 46.33234 8.67007 32048 ft 445 kts 186°
2026-04-28 21:19 46.30197 8.66935 31430 ft 441 kts 186°
2026-04-28 21:19 46.27133 8.66866 30795 ft 440 kts 186°
2026-04-28 21:19 46.24078 8.66801 30154 ft 439 kts 186°
2026-04-28 21:19 46.21025 8.66730 29426 ft 438 kts 185°
2026-04-28 21:20 46.17994 8.66658 28749 ft 434 kts 185°
2026-04-28 21:20 46.14994 8.66589 28095 ft 428 kts 185°
2026-04-28 21:20 46.12031 8.66564 27455 ft 424 kts 180°
2026-04-28 21:20 46.09140 8.67429 26813 ft 428 kts 162°
2026-04-28 21:21 46.06440 8.69272 25974 ft 431 kts 155°
2026-04-28 21:21 46.03820 8.71385 25141 ft 432 kts 153°
2026-04-28 21:21 46.01212 8.73545 24272 ft 434 kts 153°
2026-04-28 21:21 45.98587 8.75715 23314 ft 436 kts 153°
2026-04-28 21:22 45.95961 8.77867 22321 ft 431 kts 153°
2026-04-28 21:22 45.93367 8.79956 21409 ft 423 kts 153°
2026-04-28 21:22 45.90813 8.81976 20544 ft 415 kts 154°
2026-04-28 21:22 45.89145 8.83279 20006 ft 410 kts 154°
2026-04-28 21:23 45.85847 8.85831 19327 ft 388 kts 154°
2026-04-28 21:23 45.83561 8.87599 19206 ft 360 kts 154°
2026-04-28 21:23 45.81460 8.89228 19091 ft 334 kts 155°
2026-04-28 21:23 45.79631 8.90645 19033 ft 312 kts 155°
2026-04-28 21:24 45.77733 8.92109 18577 ft 316 kts 155°
2026-04-28 21:24 45.75705 8.93645 17900 ft 340 kts 155°
2026-04-28 21:24 45.73628 8.95217 17220 ft 335 kts 155°
2026-04-28 21:24 45.71609 8.96762 16841 ft 321 kts 155°
2026-04-28 21:25 45.69645 8.98273 16183 ft 322 kts 154°
2026-04-28 21:25 45.67692 8.99775 15638 ft 317 kts 154°
2026-04-28 21:25 45.65774 9.01253 15406 ft 307 kts 154°
2026-04-28 21:25 45.64137 9.02516 15302 ft 316 kts 154°
2026-04-28 21:26 45.62295 9.03932 15071 ft 315 kts 154°
2026-04-28 21:26 45.60358 9.05418 14641 ft 318 kts 154°
2026-04-28 21:26 45.58424 9.06900 14302 ft 316 kts 154°
2026-04-28 21:26 45.56499 9.08377 13868 ft 312 kts 154°
2026-04-28 21:27 45.54599 9.09835 13395 ft 308 kts 153°
2026-04-28 21:27 45.52722 9.11273 12925 ft 304 kts 153°
2026-04-28 21:27 45.50844 9.12604 12453 ft 299 kts 164°
2026-04-28 21:27 45.48827 9.13134 12004 ft 293 kts 176°
2026-04-28 21:28 45.46808 9.13345 11550 ft 290 kts 177°
2026-04-28 21:28 45.44806 9.13522 11102 ft 287 kts 178°
2026-04-28 21:28 45.42826 9.13690 10662 ft 284 kts 177°
2026-04-28 21:28 45.40861 9.13852 10229 ft 282 kts 177°
2026-04-28 21:29 45.38908 9.14020 9786 ft 280 kts 177°
2026-04-28 21:29 45.36973 9.14202 9312 ft 278 kts 176°
2026-04-28 21:29 45.35051 9.14397 8836 ft 276 kts 176°
2026-04-28 21:29 45.33156 9.14599 8377 ft 268 kts 175°
2026-04-28 21:30 45.31325 9.14801 7920 ft 260 kts 175°
2026-04-28 21:30 45.29548 9.15002 7458 ft 253 kts 175°
2026-04-28 21:30 45.27806 9.15196 7030 ft 249 kts 174°
2026-04-28 21:30 45.26091 9.15391 6612 ft 244 kts 174°
2026-04-28 21:31 45.24452 9.15579 6165 ft 235 kts 174°
2026-04-28 21:31 45.22823 9.15770 5693 ft 229 kts 174°
2026-04-28 21:31 45.21274 9.15950 5248 ft 225 kts 174°
2026-04-28 21:31 45.19717 9.16129 4827 ft 224 kts 173°
2026-04-28 21:32 45.18170 9.16306 4369 ft 222 kts 174°
2026-04-28 21:32 45.16631 9.16488 3922 ft 222 kts 174°
2026-04-28 21:32 45.15110 9.16790 3474 ft 222 kts 156°
2026-04-28 21:32 45.14026 9.18198 3209 ft 215 kts 109°
2026-04-28 21:33 45.14033 9.20257 2988 ft 215 kts 64°
2026-04-28 21:33 45.14859 9.21996 2814 ft 214 kts 52°
2026-04-28 21:33 45.15770 9.23669 2575 ft 213 kts 52°
2026-04-28 21:33 45.16682 9.25297 2553 ft 212 kts 51°
2026-04-28 21:34 45.17745 9.26750 2543 ft 215 kts 35°
2026-04-28 21:34 45.19014 9.27886 2532 ft 216 kts 32°
2026-04-28 21:34 45.20312 9.28988 2517 ft 219 kts 33°
2026-04-28 21:34 45.21731 9.29786 2514 ft 224 kts
2026-04-28 21:35 45.23288 9.29948 2519 ft 225 kts
2026-04-28 21:35 45.24850 9.29920 2514 ft 219 kts 358°
2026-04-28 21:35 45.26277 9.29754 2497 ft 195 kts 356°
2026-04-28 21:35 45.27613 9.29571 2518 ft 192 kts 356°
2026-04-28 21:36 45.28925 9.29407 2519 ft 189 kts 356°
2026-04-28 21:36 45.30234 9.29253 2522 ft 189 kts 357°
2026-04-28 21:36 45.31535 9.29106 2518 ft 183 kts 357°
2026-04-28 21:36 45.32732 9.28973 2479 ft 168 kts 357°
2026-04-28 21:37 45.33916 9.28845 2232 ft 167 kts 358°
2026-04-28 21:37 45.35063 9.28722 2033 ft 165 kts 357°
2026-04-28 21:37 45.36194 9.28603 1802 ft 165 kts 357°
2026-04-28 21:37 45.37335 9.28480 1564 ft 165 kts 357°
2026-04-28 21:38 45.38467 9.28359 1333 ft 162 kts 357°
2026-04-28 21:38 45.39573 9.28239 1102 ft 156 kts 356°
2026-04-28 21:38 45.40640 9.28125 900 ft 151 kts 356°
2026-04-28 21:38 45.41675 9.28005 736 ft 147 kts 356°
2026-04-28 21:39 45.42703 9.27897 559 ft 147 kts 356°
2026-04-28 21:39 45.43725 9.27791 366 ft 143 kts 357°
2026-04-28 21:39 45.44545 9.27712 367 ft 78 kts 355°
2026-04-28 21:39 45.44873 9.27677 362 ft 33 kts 355°
2026-04-28 21:40 45.45097 9.27653 362 ft 32 kts 355°
2026-04-28 21:40 45.45309 9.27660 361 ft 29 kts 20°
2026-04-28 21:40 45.45422 9.27743 364 ft 13 kts 34°
2026-04-28 21:40 45.45499 9.27806 363 ft 13 kts 19°
2026-04-28 21:41 45.45589 9.27818 363 ft 13 kts
2026-04-28 21:41 45.45683 9.27820 364 ft 14 kts 360°
2026-04-28 21:41 45.45729 9.27831 363 ft 2 kts 48°
2026-04-28 21:41 45.45734 9.27848 367 ft 2 kts 77°
2026-04-28 21:42 45.45735 9.27883 366 ft 0 kts 92°
2026-04-28 21:42 45.45735 9.27884 366 ft 0 kts 92°